Year,Month,Day,Hour,Minute,Value (Times are PST for temperature in C)
2020,05,06,00,00,11.80
2020,05,06,00,01,11.80
2020,05,06,00,02,11.80
2020,05,06,00,03,11.80
2020,05,06,00,04,11.80
2020,05,06,00,05,11.80
2020,05,06,00,06,11.80
2020,05,06,00,07,11.90
2020,05,06,00,08,11.90
2020,05,06,00,09,12.00
2020,05,06,00,10,12.00
2020,05,06,00,11,12.10
2020,05,06,00,12,12.10
2020,05,06,00,13,12.10
2020,05,06,00,14,12.20
2020,05,06,00,15,12.20
2020,05,06,00,16,12.20
2020,05,06,00,17,12.20
2020,05,06,00,18,12.20
2020,05,06,00,19,12.20
2020,05,06,00,20,12.20
2020,05,06,00,21,12.10
2020,05,06,00,22,12.20
2020,05,06,00,23,12.10
2020,05,06,00,24,12.10
2020,05,06,00,25,12.10
2020,05,06,00,26,12.10
2020,05,06,00,27,12.10
2020,05,06,00,28,12.10
2020,05,06,00,29,12.20
2020,05,06,00,30,12.20
2020,05,06,00,31,12.20
2020,05,06,00,32,12.20
2020,05,06,00,33,12.20
2020,05,06,00,34,12.30
2020,05,06,00,35,12.30
2020,05,06,00,36,12.20
2020,05,06,00,37,12.20
2020,05,06,00,38,12.30
2020,05,06,00,39,12.30
2020,05,06,00,40,12.30
2020,05,06,00,41,12.30
2020,05,06,00,42,12.30
2020,05,06,00,43,12.30
2020,05,06,00,44,12.30
2020,05,06,00,45,12.30
2020,05,06,00,46,12.30
2020,05,06,00,47,12.30
2020,05,06,00,48,12.40
2020,05,06,00,49,12.40
2020,05,06,00,50,12.40
2020,05,06,00,51,12.40
2020,05,06,00,52,12.40
2020,05,06,00,53,12.40
2020,05,06,00,54,12.40
2020,05,06,00,55,12.40
2020,05,06,00,56,12.40
2020,05,06,00,57,12.40
2020,05,06,00,58,12.40
2020,05,06,00,59,12.40
2020,05,06,01,00,12.50
2020,05,06,01,01,12.50
2020,05,06,01,02,12.50
2020,05,06,01,03,12.50
2020,05,06,01,04,12.60
2020,05,06,01,05,12.60
2020,05,06,01,06,12.60
2020,05,06,01,07,12.60
2020,05,06,01,08,12.60
2020,05,06,01,09,12.60
2020,05,06,01,10,12.60
2020,05,06,01,11,12.60
2020,05,06,01,12,12.60
2020,05,06,01,13,12.60
2020,05,06,01,14,12.60
2020,05,06,01,15,12.60
2020,05,06,01,16,12.60
2020,05,06,01,17,12.60
2020,05,06,01,18,12.60
2020,05,06,01,19,12.60
2020,05,06,01,20,12.60
2020,05,06,01,21,12.60
2020,05,06,01,22,12.60
2020,05,06,01,23,12.60
2020,05,06,01,24,12.60
2020,05,06,01,25,12.60
2020,05,06,01,26,12.60
2020,05,06,01,27,12.60
2020,05,06,01,28,12.60
2020,05,06,01,29,12.60
2020,05,06,01,30,12.60
2020,05,06,01,31,12.60
2020,05,06,01,32,12.60
2020,05,06,01,33,12.60
2020,05,06,01,34,12.60
2020,05,06,01,35,12.60
2020,05,06,01,36,12.60
2020,05,06,01,37,12.60
2020,05,06,01,43,12.50
2020,05,06,01,44,12.50
2020,05,06,01,45,12.50
2020,05,06,01,46,12.50
2020,05,06,01,47,12.50
2020,05,06,01,48,12.40
2020,05,06,01,49,12.40
2020,05,06,01,50,12.40
2020,05,06,01,51,12.40
2020,05,06,01,52,12.40
2020,05,06,01,53,12.40
2020,05,06,01,54,12.40
2020,05,06,01,55,12.40
2020,05,06,01,56,12.40
2020,05,06,01,57,12.40
2020,05,06,01,58,12.40
2020,05,06,01,59,12.30
2020,05,06,02,00,12.30
2020,05,06,02,01,12.30
2020,05,06,02,02,12.30
2020,05,06,02,03,12.30
2020,05,06,02,04,12.30
2020,05,06,02,05,12.20
2020,05,06,02,06,12.20
2020,05,06,02,07,12.20
2020,05,06,02,08,12.20
2020,05,06,02,09,12.10
2020,05,06,02,10,12.10
2020,05,06,02,11,12.10
2020,05,06,02,12,12.10
2020,05,06,02,13,12.10
2020,05,06,02,14,12.10
2020,05,06,02,15,12.10
2020,05,06,02,16,12.00
2020,05,06,02,17,12.00
2020,05,06,02,18,11.90
2020,05,06,02,19,11.90
2020,05,06,02,20,11.90
2020,05,06,02,21,11.90
2020,05,06,02,22,11.90
2020,05,06,02,23,11.90
2020,05,06,02,24,11.80
2020,05,06,02,25,11.80
2020,05,06,02,26,11.80
2020,05,06,02,27,11.70
2020,05,06,02,28,11.70
2020,05,06,02,29,11.70
2020,05,06,02,30,11.70
2020,05,06,02,31,11.70
2020,05,06,02,32,11.60
2020,05,06,02,33,11.60
2020,05,06,02,34,11.60
2020,05,06,02,35,11.60
2020,05,06,02,36,11.60
2020,05,06,02,37,11.60
2020,05,06,02,38,11.70
2020,05,06,02,39,11.70
2020,05,06,02,40,11.70
2020,05,06,02,41,11.70
2020,05,06,02,42,11.70
2020,05,06,02,43,11.70
2020,05,06,02,44,11.80
2020,05,06,02,45,11.80
2020,05,06,02,46,11.80
2020,05,06,02,47,11.80
2020,05,06,02,48,11.80
2020,05,06,02,49,11.80
2020,05,06,02,50,11.80
2020,05,06,02,51,11.80
2020,05,06,02,52,11.80
2020,05,06,02,53,11.80
2020,05,06,02,54,11.80
2020,05,06,02,55,11.80
2020,05,06,02,56,11.80
2020,05,06,02,57,11.80
2020,05,06,02,58,11.80
2020,05,06,02,59,11.80
2020,05,06,03,00,11.80
2020,05,06,03,01,11.70
2020,05,06,03,02,11.70
2020,05,06,03,03,11.70
2020,05,06,03,04,11.60
2020,05,06,03,05,11.60
2020,05,06,03,06,11.60
2020,05,06,03,07,11.50
2020,05,06,03,08,11.50
2020,05,06,03,09,11.50
2020,05,06,03,10,11.40
2020,05,06,03,11,11.40
2020,05,06,03,12,11.30
2020,05,06,03,13,11.30
2020,05,06,03,14,11.20
2020,05,06,03,15,11.20
2020,05,06,03,16,11.20
2020,05,06,03,17,11.20
2020,05,06,03,18,11.20
2020,05,06,03,19,11.20
2020,05,06,03,20,11.20
2020,05,06,03,21,11.30
2020,05,06,03,22,11.30
2020,05,06,03,23,11.30
2020,05,06,03,24,11.40
2020,05,06,03,25,11.40
2020,05,06,03,26,11.40
2020,05,06,03,27,11.50
2020,05,06,03,28,11.50
2020,05,06,03,29,11.50
2020,05,06,03,30,11.60
2020,05,06,03,31,11.60
2020,05,06,03,32,11.60
2020,05,06,03,33,11.60
2020,05,06,03,34,11.60
2020,05,06,03,35,11.60
2020,05,06,03,36,11.60
2020,05,06,03,37,11.60
2020,05,06,03,38,11.60
2020,05,06,03,39,11.60
2020,05,06,03,40,11.60
2020,05,06,03,41,11.60
2020,05,06,03,42,11.60
2020,05,06,03,43,11.60
2020,05,06,03,44,11.60
2020,05,06,03,45,11.60
2020,05,06,03,46,11.60
2020,05,06,03,47,11.70
2020,05,06,03,48,11.70
2020,05,06,03,49,11.70
2020,05,06,03,50,11.70
2020,05,06,03,51,11.70
2020,05,06,03,52,11.70
2020,05,06,03,53,11.70
2020,05,06,03,54,11.60
2020,05,06,03,55,11.60
2020,05,06,03,56,11.60
2020,05,06,03,57,11.60
2020,05,06,03,58,11.60
2020,05,06,03,59,11.60
2020,05,06,04,00,11.60
2020,05,06,04,01,11.60
2020,05,06,04,02,11.60
2020,05,06,04,03,11.60
2020,05,06,04,04,11.60
2020,05,06,04,05,11.60
2020,05,06,04,06,11.60
2020,05,06,04,07,11.60
2020,05,06,04,08,11.60
2020,05,06,04,09,11.50
2020,05,06,04,10,11.50
2020,05,06,04,11,11.50
2020,05,06,04,12,11.40
2020,05,06,04,13,11.40
2020,05,06,04,14,11.40
2020,05,06,04,15,11.40
2020,05,06,04,16,11.40
2020,05,06,04,17,11.30
2020,05,06,04,18,11.30
2020,05,06,04,19,11.30
2020,05,06,04,20,11.30
2020,05,06,04,21,11.30
2020,05,06,04,22,11.30
2020,05,06,04,23,11.30
2020,05,06,04,24,11.30
2020,05,06,04,25,11.30
2020,05,06,04,26,11.30
2020,05,06,04,27,11.30
2020,05,06,04,28,11.30
2020,05,06,04,29,11.20
2020,05,06,04,30,11.20
2020,05,06,04,31,11.20
2020,05,06,04,32,11.20
2020,05,06,04,33,11.20
2020,05,06,04,34,11.20
2020,05,06,04,35,11.20
2020,05,06,04,36,11.20
2020,05,06,04,37,11.20
2020,05,06,04,38,11.20
2020,05,06,04,39,11.20
2020,05,06,04,40,11.10
2020,05,06,04,41,11.10
2020,05,06,04,42,11.10
2020,05,06,04,43,11.20
2020,05,06,04,44,11.10
2020,05,06,04,45,11.10
2020,05,06,04,46,11.20
2020,05,06,04,47,11.20
2020,05,06,04,48,11.10
2020,05,06,04,49,11.20
2020,05,06,04,50,11.20
2020,05,06,04,51,11.20
2020,05,06,04,52,11.20
2020,05,06,04,53,11.10
2020,05,06,04,54,11.10
2020,05,06,04,55,11.20
2020,05,06,04,56,11.20
2020,05,06,04,57,11.20
2020,05,06,04,58,11.20
2020,05,06,04,59,11.20
2020,05,06,05,00,11.20
2020,05,06,05,01,11.20
2020,05,06,05,02,11.20
2020,05,06,05,03,11.20
2020,05,06,05,04,11.20
2020,05,06,05,05,11.20
2020,05,06,05,06,11.20
2020,05,06,05,07,11.10
2020,05,06,05,08,11.10
2020,05,06,05,09,11.10
2020,05,06,05,10,11.10
2020,05,06,05,11,11.10
2020,05,06,05,12,11.10
2020,05,06,05,13,11.10
2020,05,06,05,14,11.10
2020,05,06,05,15,11.10
2020,05,06,05,16,11.10
2020,05,06,05,17,11.10
2020,05,06,05,18,11.10
2020,05,06,05,19,11.00
2020,05,06,05,20,11.00
2020,05,06,05,21,11.00
2020,05,06,05,22,11.00
2020,05,06,05,23,11.00
2020,05,06,05,24,11.00
2020,05,06,05,25,10.90
2020,05,06,05,26,10.90
2020,05,06,05,27,10.90
2020,05,06,05,28,10.90
2020,05,06,05,29,10.90
2020,05,06,05,30,10.90
2020,05,06,05,31,10.90
2020,05,06,05,32,10.90
2020,05,06,05,33,10.90
2020,05,06,05,34,10.80
2020,05,06,05,35,10.80
2020,05,06,05,36,10.80
2020,05,06,05,37,10.80
2020,05,06,05,38,10.80
2020,05,06,05,39,10.80
2020,05,06,05,40,10.70
2020,05,06,05,41,10.70
2020,05,06,05,42,10.70
2020,05,06,05,43,10.70
2020,05,06,05,44,10.70
2020,05,06,05,45,10.70
2020,05,06,05,46,10.70
2020,05,06,05,47,10.70
2020,05,06,05,48,10.70
2020,05,06,05,49,10.70
2020,05,06,05,50,10.60
2020,05,06,05,51,10.60
2020,05,06,05,52,10.60
2020,05,06,05,53,10.60
2020,05,06,05,54,10.60
2020,05,06,05,55,10.60
2020,05,06,05,56,10.50
2020,05,06,05,57,10.50
2020,05,06,05,58,10.50
2020,05,06,05,59,10.50
2020,05,06,06,00,10.50
2020,05,06,06,01,10.40
2020,05,06,06,02,10.40
2020,05,06,06,03,10.40
2020,05,06,06,04,10.40
2020,05,06,06,05,10.40
2020,05,06,06,06,10.40
2020,05,06,06,07,10.40
2020,05,06,06,08,10.30
2020,05,06,06,09,10.30
2020,05,06,06,10,10.30
2020,05,06,06,11,10.30
2020,05,06,06,12,10.30
2020,05,06,06,13,10.30
2020,05,06,06,14,10.30
2020,05,06,06,15,10.20
2020,05,06,06,16,10.20
2020,05,06,06,17,10.20
2020,05,06,06,18,10.20
2020,05,06,06,19,10.20
2020,05,06,06,20,10.20
2020,05,06,06,21,10.20
2020,05,06,06,22,10.20
2020,05,06,06,23,10.20
2020,05,06,06,24,10.20
2020,05,06,06,25,10.20
2020,05,06,06,26,10.20
2020,05,06,06,27,10.20
2020,05,06,06,28,10.20
2020,05,06,06,29,10.20
2020,05,06,06,30,10.10
2020,05,06,06,31,10.20
2020,05,06,06,32,10.10
2020,05,06,06,33,10.10
2020,05,06,06,34,10.10
2020,05,06,06,35,10.10
2020,05,06,06,36,10.10
2020,05,06,06,37,10.10
2020,05,06,06,38,10.10
2020,05,06,06,39,10.10
2020,05,06,06,40,10.10
2020,05,06,06,41,10.10
2020,05,06,06,42,10.10
2020,05,06,06,43,10.10
2020,05,06,06,44,10.20
2020,05,06,06,45,10.20
2020,05,06,06,46,10.20
2020,05,06,06,47,10.20
2020,05,06,06,48,10.20
2020,05,06,06,49,10.20
2020,05,06,06,50,10.20
2020,05,06,06,51,10.20
2020,05,06,06,52,10.20
2020,05,06,06,53,10.20
2020,05,06,06,54,10.20
2020,05,06,06,55,10.20
2020,05,06,06,56,10.20
2020,05,06,06,57,10.30
2020,05,06,06,58,10.30
2020,05,06,06,59,10.30
2020,05,06,07,00,10.30
2020,05,06,07,01,10.30
2020,05,06,07,02,10.30
2020,05,06,07,03,10.30
2020,05,06,07,04,10.30
2020,05,06,07,05,10.30
2020,05,06,07,06,10.30
2020,05,06,07,07,10.30
2020,05,06,07,08,10.30
2020,05,06,07,09,10.30
2020,05,06,07,10,10.30
2020,05,06,07,11,10.40
2020,05,06,07,12,10.40
2020,05,06,07,13,10.40
2020,05,06,07,14,10.40
2020,05,06,07,15,10.40
2020,05,06,07,16,10.40
2020,05,06,07,17,10.40
2020,05,06,07,18,10.40
2020,05,06,07,19,10.40
2020,05,06,07,20,10.50
2020,05,06,07,21,10.50
2020,05,06,07,22,10.50
2020,05,06,07,23,10.50
2020,05,06,07,24,10.50
2020,05,06,07,25,10.50
2020,05,06,07,26,10.50
2020,05,06,07,27,10.50
2020,05,06,07,28,10.60
2020,05,06,07,29,10.60
2020,05,06,07,30,10.60
2020,05,06,07,31,10.60
2020,05,06,07,32,10.60
2020,05,06,07,33,10.60
2020,05,06,07,34,10.60
2020,05,06,07,35,10.60
2020,05,06,07,36,10.60
2020,05,06,07,37,10.60
2020,05,06,07,38,10.70
2020,05,06,07,39,10.70
2020,05,06,07,40,10.70
2020,05,06,07,41,10.70
2020,05,06,07,42,10.70
2020,05,06,07,43,10.70
2020,05,06,07,44,10.70
2020,05,06,07,45,10.80
2020,05,06,07,46,10.80
2020,05,06,07,47,10.80
2020,05,06,07,48,10.80
2020,05,06,07,49,10.80
2020,05,06,07,50,10.80
2020,05,06,07,51,10.80
2020,05,06,07,52,10.90
2020,05,06,07,53,10.90
2020,05,06,07,54,10.90
2020,05,06,07,55,10.90
2020,05,06,07,56,10.90
2020,05,06,07,57,10.90
2020,05,06,07,58,10.90
2020,05,06,07,59,11.00
2020,05,06,08,00,11.00
2020,05,06,08,01,11.00
2020,05,06,08,02,11.00
2020,05,06,08,03,11.00
2020,05,06,08,04,11.10
2020,05,06,08,05,11.10
2020,05,06,08,06,11.10
2020,05,06,08,07,11.10
2020,05,06,08,08,11.10
2020,05,06,08,09,11.10
2020,05,06,08,10,11.10
2020,05,06,08,11,11.10
2020,05,06,08,12,11.10
2020,05,06,08,13,11.10
2020,05,06,08,14,11.10
2020,05,06,08,15,11.10
2020,05,06,08,16,11.20
2020,05,06,08,17,11.20
2020,05,06,08,18,11.20
2020,05,06,08,19,11.20
2020,05,06,08,20,11.20
2020,05,06,08,21,11.20
2020,05,06,08,22,11.20
2020,05,06,08,23,11.20
2020,05,06,08,24,11.20
2020,05,06,08,25,11.20
2020,05,06,08,26,11.20
2020,05,06,08,27,11.30
2020,05,06,08,28,11.30
2020,05,06,08,29,11.30
2020,05,06,08,30,11.30
2020,05,06,08,31,11.30
2020,05,06,08,32,11.40
2020,05,06,08,33,11.40
2020,05,06,08,34,11.40
2020,05,06,08,35,11.40
2020,05,06,08,36,11.40
2020,05,06,08,37,11.50
2020,05,06,08,38,11.50
2020,05,06,08,39,11.60
2020,05,06,08,40,11.60
2020,05,06,08,41,11.70
2020,05,06,08,42,11.70
2020,05,06,08,43,11.80
2020,05,06,08,44,11.80
2020,05,06,08,45,11.80
2020,05,06,08,46,11.90
2020,05,06,08,47,11.90
2020,05,06,08,48,12.00
2020,05,06,08,49,12.10
2020,05,06,08,50,12.10
2020,05,06,08,51,12.10
2020,05,06,08,52,12.20
2020,05,06,08,53,12.20
2020,05,06,08,54,12.20
2020,05,06,08,55,12.30
2020,05,06,08,56,12.30
2020,05,06,08,57,12.40
2020,05,06,08,58,12.40
2020,05,06,08,59,12.50
2020,05,06,09,00,12.60
2020,05,06,09,01,12.60
2020,05,06,09,02,12.70
2020,05,06,09,03,12.80
2020,05,06,09,04,12.80
2020,05,06,09,05,12.90
2020,05,06,09,06,12.90
2020,05,06,09,07,13.00
2020,05,06,09,08,13.00
2020,05,06,09,09,13.10
2020,05,06,09,10,13.10
2020,05,06,09,11,13.20
2020,05,06,09,12,13.20
2020,05,06,09,13,13.30
2020,05,06,09,14,13.30
2020,05,06,09,15,13.30
2020,05,06,09,16,13.40
2020,05,06,09,17,13.40
2020,05,06,09,18,13.50
2020,05,06,09,19,13.60
2020,05,06,09,20,13.60
2020,05,06,09,21,13.70
2020,05,06,09,22,13.70
2020,05,06,09,23,13.70
2020,05,06,09,24,13.80
2020,05,06,09,25,13.80
2020,05,06,09,26,13.80
2020,05,06,09,27,13.80
2020,05,06,09,28,13.80
2020,05,06,09,29,13.80
2020,05,06,09,30,13.80
2020,05,06,09,31,13.80
2020,05,06,09,32,13.80
2020,05,06,09,33,13.80
2020,05,06,09,34,13.80
2020,05,06,09,35,13.90
2020,05,06,09,36,13.90
2020,05,06,09,37,13.90
2020,05,06,09,38,14.00
2020,05,06,09,39,14.00
2020,05,06,09,40,14.10
2020,05,06,09,41,14.10
2020,05,06,09,42,14.10
2020,05,06,09,43,14.20
2020,05,06,09,44,14.20
2020,05,06,09,45,14.20
2020,05,06,09,46,14.20
2020,05,06,09,47,14.20
2020,05,06,09,48,14.20
2020,05,06,09,49,14.20
2020,05,06,09,50,14.20
2020,05,06,09,51,14.20
2020,05,06,09,52,14.20
2020,05,06,09,53,14.20
2020,05,06,09,54,14.20
2020,05,06,09,55,14.20
2020,05,06,09,56,14.20
2020,05,06,09,57,14.20
2020,05,06,09,58,14.30
2020,05,06,09,59,14.30
2020,05,06,10,00,14.30
2020,05,06,10,01,14.30
2020,05,06,10,02,14.30
2020,05,06,10,03,14.30
2020,05,06,10,04,14.30
2020,05,06,10,05,14.30
2020,05,06,10,06,14.30
2020,05,06,10,07,14.40
2020,05,06,10,08,14.40
2020,05,06,10,09,14.40
2020,05,06,10,10,14.40
2020,05,06,10,11,14.30
2020,05,06,10,12,14.40
2020,05,06,10,13,14.40
2020,05,06,10,14,14.40
2020,05,06,10,15,14.40
2020,05,06,10,16,14.40
2020,05,06,10,17,14.40
2020,05,06,10,18,14.40
2020,05,06,10,19,14.40
2020,05,06,10,20,14.40
2020,05,06,10,21,14.50
2020,05,06,10,22,14.50
2020,05,06,10,23,14.60
2020,05,06,10,24,14.60
2020,05,06,10,25,14.70
2020,05,06,10,26,14.70
2020,05,06,10,27,14.70
2020,05,06,10,28,14.70
2020,05,06,10,29,14.70
2020,05,06,10,30,14.70
2020,05,06,10,31,14.70
2020,05,06,10,32,14.70
2020,05,06,10,33,14.70
2020,05,06,10,34,14.80
2020,05,06,10,35,14.80
2020,05,06,10,36,14.80
2020,05,06,10,37,14.80
2020,05,06,10,38,14.80
2020,05,06,10,39,14.90
2020,05,06,10,40,14.90
2020,05,06,10,41,14.90
2020,05,06,10,42,14.90
2020,05,06,10,43,14.90
2020,05,06,10,44,14.90
2020,05,06,10,45,15.00
2020,05,06,10,46,15.00
2020,05,06,10,47,15.10
2020,05,06,10,48,15.10
2020,05,06,10,49,15.20
2020,05,06,10,50,15.20
2020,05,06,10,51,15.20
2020,05,06,10,52,15.20
2020,05,06,10,53,15.30
2020,05,06,10,54,15.40
2020,05,06,10,55,15.40
2020,05,06,10,56,15.50
2020,05,06,10,57,15.60
2020,05,06,10,58,15.60
2020,05,06,10,59,15.60
2020,05,06,11,00,15.60
2020,05,06,11,01,15.60
2020,05,06,11,02,15.50
2020,05,06,11,03,15.50
2020,05,06,11,04,15.50
2020,05,06,11,05,15.50
2020,05,06,11,06,15.50
2020,05,06,11,07,15.50
2020,05,06,11,08,15.50
2020,05,06,11,09,15.40
2020,05,06,11,10,15.40
2020,05,06,11,11,15.40
2020,05,06,11,12,15.40
2020,05,06,11,13,15.40
2020,05,06,11,14,15.40
2020,05,06,11,15,15.50
2020,05,06,11,16,15.60
2020,05,06,11,17,15.60
2020,05,06,11,18,15.70
2020,05,06,11,19,15.70
2020,05,06,11,20,15.70
2020,05,06,11,21,15.80
2020,05,06,11,22,15.80
2020,05,06,11,23,15.80
2020,05,06,11,24,15.80
2020,05,06,11,25,15.80
2020,05,06,11,26,15.90
2020,05,06,11,27,16.00
2020,05,06,11,28,16.00
2020,05,06,11,29,16.10
2020,05,06,11,30,16.20
2020,05,06,11,31,16.30
2020,05,06,11,32,16.30
2020,05,06,11,33,16.30
2020,05,06,11,34,16.30
2020,05,06,11,35,16.30
2020,05,06,11,36,16.40
2020,05,06,11,37,16.40
2020,05,06,11,38,16.50
2020,05,06,11,39,16.50
2020,05,06,11,40,16.50
2020,05,06,11,41,16.50
2020,05,06,11,42,16.50
2020,05,06,11,43,16.50
2020,05,06,11,44,16.60
2020,05,06,11,45,16.60
2020,05,06,11,46,16.70
2020,05,06,11,47,16.70
2020,05,06,11,48,16.60
2020,05,06,11,49,16.60
2020,05,06,11,50,16.60
2020,05,06,11,51,16.60
2020,05,06,11,52,16.60
2020,05,06,11,53,16.60
2020,05,06,11,54,16.60
2020,05,06,11,55,16.60
2020,05,06,11,56,16.60
2020,05,06,11,57,16.60
2020,05,06,11,58,16.50
2020,05,06,11,59,16.50
2020,05,06,12,00,16.40
2020,05,06,12,01,16.30
2020,05,06,12,02,16.20
2020,05,06,12,03,16.10
2020,05,06,12,04,16.10
2020,05,06,12,05,16.00
2020,05,06,12,06,15.90
2020,05,06,12,07,15.90
2020,05,06,12,08,15.80
2020,05,06,12,09,15.80
2020,05,06,12,10,15.80
2020,05,06,12,11,15.70
2020,05,06,12,12,15.70
2020,05,06,12,13,15.70
2020,05,06,12,14,15.60
2020,05,06,12,15,15.60
2020,05,06,12,16,15.50
2020,05,06,12,17,15.50
2020,05,06,12,18,15.50
2020,05,06,12,19,15.50
2020,05,06,12,20,15.50
2020,05,06,12,21,15.50
2020,05,06,12,22,15.50
2020,05,06,12,23,15.60
2020,05,06,12,24,15.60
2020,05,06,12,25,15.60
2020,05,06,12,26,15.70
2020,05,06,12,27,15.70
2020,05,06,12,28,15.80
2020,05,06,12,37,16.00
2020,05,06,12,38,15.90
2020,05,06,12,39,15.80
2020,05,06,12,40,15.80
2020,05,06,12,41,15.70
2020,05,06,12,42,15.60
2020,05,06,12,43,15.60
2020,05,06,12,44,15.50
2020,05,06,12,45,15.50
2020,05,06,12,46,15.50
2020,05,06,12,47,15.50
2020,05,06,12,48,15.40
2020,05,06,12,49,15.50
2020,05,06,12,50,15.50
2020,05,06,12,51,15.50
2020,05,06,12,52,15.50
2020,05,06,12,53,15.50
2020,05,06,12,54,15.50
2020,05,06,12,55,15.50
2020,05,06,12,56,15.50
2020,05,06,12,57,15.50
2020,05,06,12,58,15.50
2020,05,06,12,59,15.50
2020,05,06,13,00,15.40
2020,05,06,13,01,15.40
2020,05,06,13,02,15.40
2020,05,06,13,03,15.30
2020,05,06,13,04,15.30
2020,05,06,13,05,15.30
2020,05,06,13,06,15.30
2020,05,06,13,07,15.30
2020,05,06,13,08,15.30
2020,05,06,13,09,15.30
2020,05,06,13,10,15.30
2020,05,06,13,11,15.30
2020,05,06,13,12,15.40
2020,05,06,13,13,15.40
2020,05,06,13,14,15.50
2020,05,06,13,15,15.60
2020,05,06,13,16,15.60
2020,05,06,13,17,15.70
2020,05,06,13,18,15.70
2020,05,06,13,19,15.70
2020,05,06,13,20,15.70
2020,05,06,13,21,15.70
2020,05,06,13,22,15.70
2020,05,06,13,23,15.70
2020,05,06,13,24,15.80
2020,05,06,13,25,15.80
2020,05,06,13,26,15.90
2020,05,06,13,27,16.00
2020,05,06,13,28,16.10
2020,05,06,13,29,16.10
2020,05,06,13,30,16.20
2020,05,06,13,31,16.20
2020,05,06,13,32,16.30
2020,05,06,13,33,16.30
2020,05,06,13,34,16.30
2020,05,06,13,35,16.30
2020,05,06,13,36,16.30
2020,05,06,13,37,16.40
2020,05,06,13,38,16.40
2020,05,06,13,39,16.40
2020,05,06,13,40,16.40
2020,05,06,13,41,16.50
2020,05,06,13,42,16.50
2020,05,06,13,43,16.50
2020,05,06,13,44,16.50
2020,05,06,13,45,16.50
2020,05,06,13,46,16.50
2020,05,06,13,47,16.50
2020,05,06,13,48,16.50
2020,05,06,13,49,16.50
2020,05,06,13,50,16.50
2020,05,06,13,51,16.60
2020,05,06,13,52,16.60
2020,05,06,13,53,16.60
2020,05,06,13,54,16.70
2020,05,06,13,55,16.70
2020,05,06,13,56,16.70
2020,05,06,13,57,16.70
2020,05,06,13,58,16.70
2020,05,06,13,59,16.70
2020,05,06,14,00,16.80
2020,05,06,14,01,16.80
2020,05,06,14,02,16.80
2020,05,06,14,03,16.80
2020,05,06,14,04,16.80
2020,05,06,14,05,16.80
2020,05,06,14,06,16.80
2020,05,06,14,07,16.80
2020,05,06,14,08,16.80
2020,05,06,14,09,16.80
2020,05,06,14,10,16.70
2020,05,06,14,11,16.60
2020,05,06,14,12,16.60
2020,05,06,14,13,16.50
2020,05,06,14,14,16.40
2020,05,06,14,15,16.40
2020,05,06,14,16,16.40
2020,05,06,14,17,16.30
2020,05,06,14,18,16.40
2020,05,06,14,19,16.30
2020,05,06,14,20,16.30
2020,05,06,14,21,16.30
2020,05,06,14,22,16.30
2020,05,06,14,23,16.30
2020,05,06,14,24,16.30
2020,05,06,14,25,16.30
2020,05,06,14,26,16.20
2020,05,06,14,27,16.20
2020,05,06,14,28,16.20
2020,05,06,14,29,16.10
2020,05,06,14,30,16.10
2020,05,06,14,31,16.00
2020,05,06,14,32,16.00
2020,05,06,14,33,15.90
2020,05,06,14,34,15.90
2020,05,06,14,35,15.90
2020,05,06,14,36,16.00
2020,05,06,14,37,16.00
2020,05,06,14,38,16.10
2020,05,06,14,39,16.10
2020,05,06,14,40,16.10
2020,05,06,14,41,16.20
2020,05,06,14,42,16.20
2020,05,06,14,43,16.20
2020,05,06,14,44,16.10
2020,05,06,14,45,16.10
2020,05,06,14,46,16.10
2020,05,06,14,47,16.00
2020,05,06,14,48,16.10
2020,05,06,14,49,16.10
2020,05,06,14,50,16.10
2020,05,06,14,51,16.10
2020,05,06,14,52,16.20
2020,05,06,14,53,16.30
2020,05,06,14,54,16.30
2020,05,06,14,55,16.30
2020,05,06,14,56,16.30
2020,05,06,14,57,16.40
2020,05,06,14,58,16.40
2020,05,06,14,59,16.40
2020,05,06,15,00,16.50
2020,05,06,15,01,16.50
2020,05,06,15,02,16.50
2020,05,06,15,03,16.60
2020,05,06,15,04,16.60
2020,05,06,15,05,16.60
2020,05,06,15,06,16.50
2020,05,06,15,07,16.50
2020,05,06,15,08,16.50
2020,05,06,15,09,16.50
2020,05,06,15,10,16.50
2020,05,06,15,11,16.40
2020,05,06,15,12,16.40
2020,05,06,15,13,16.30
2020,05,06,15,14,16.20
2020,05,06,15,15,16.20
2020,05,06,15,16,16.10
2020,05,06,15,17,16.00
2020,05,06,15,18,16.00
2020,05,06,15,19,15.90
2020,05,06,15,20,15.80
2020,05,06,15,21,15.80
2020,05,06,15,22,15.80
2020,05,06,15,23,15.70
2020,05,06,15,24,15.70
2020,05,06,15,25,15.70
2020,05,06,15,26,15.70
2020,05,06,15,27,15.60
2020,05,06,15,28,15.60
2020,05,06,15,29,15.60
2020,05,06,15,30,15.60
2020,05,06,15,31,15.60
2020,05,06,15,32,15.60
2020,05,06,15,33,15.60
2020,05,06,15,34,15.60
2020,05,06,15,35,15.60
2020,05,06,15,36,15.70
2020,05,06,15,37,15.70
2020,05,06,15,38,15.80
2020,05,06,15,39,15.80
2020,05,06,15,40,15.80
2020,05,06,15,41,15.90
2020,05,06,15,42,15.90
2020,05,06,15,43,15.90
2020,05,06,15,44,16.00
2020,05,06,15,45,16.00
2020,05,06,15,46,16.10
2020,05,06,15,47,16.10
2020,05,06,15,48,16.20
2020,05,06,15,49,16.20
2020,05,06,15,50,16.20
2020,05,06,15,51,16.30
2020,05,06,15,52,16.30
2020,05,06,15,53,16.40
2020,05,06,15,54,16.40
2020,05,06,15,55,16.50
2020,05,06,15,56,16.60
2020,05,06,15,57,16.70
2020,05,06,15,58,16.70
2020,05,06,15,59,16.80
2020,05,06,16,00,16.80
2020,05,06,16,01,16.70
2020,05,06,16,02,16.70
2020,05,06,16,03,16.70
2020,05,06,16,04,16.70
2020,05,06,16,05,16.70
2020,05,06,16,06,16.70
2020,05,06,16,07,16.70
2020,05,06,16,08,16.70
2020,05,06,16,09,16.70
2020,05,06,16,10,16.60
2020,05,06,16,11,16.60
2020,05,06,16,12,16.60
2020,05,06,16,13,16.50
2020,05,06,16,14,16.40
2020,05,06,16,15,16.40
2020,05,06,16,16,16.30
2020,05,06,16,17,16.30
2020,05,06,16,18,16.20
2020,05,06,16,19,16.20
2020,05,06,16,20,16.10
2020,05,06,16,21,16.10
2020,05,06,16,22,16.00
2020,05,06,16,23,16.00
2020,05,06,16,24,15.90
2020,05,06,16,25,15.90
2020,05,06,16,26,15.80
2020,05,06,16,27,15.80
2020,05,06,16,28,15.70
2020,05,06,16,29,15.60
2020,05,06,16,30,15.60
2020,05,06,16,31,15.60
2020,05,06,16,32,15.60
2020,05,06,16,33,15.60
2020,05,06,16,34,15.60
2020,05,06,16,35,15.60
2020,05,06,16,36,15.60
2020,05,06,16,37,15.50
2020,05,06,16,38,15.40
2020,05,06,16,39,15.40
2020,05,06,16,40,15.40
2020,05,06,16,41,15.30
2020,05,06,16,42,15.30
2020,05,06,16,43,15.30
2020,05,06,16,44,15.20
2020,05,06,16,45,15.20
2020,05,06,16,46,15.20
2020,05,06,16,47,15.20
2020,05,06,16,48,15.10
2020,05,06,16,49,15.10
2020,05,06,16,50,15.00
2020,05,06,16,51,15.00
2020,05,06,16,52,14.90
2020,05,06,16,53,14.90
2020,05,06,16,54,14.90
2020,05,06,16,55,14.90
2020,05,06,16,56,14.90
2020,05,06,16,57,14.90
2020,05,06,16,58,15.00
2020,05,06,16,59,15.00
2020,05,06,17,00,15.10
2020,05,06,17,01,15.10
2020,05,06,17,02,15.10
2020,05,06,17,03,15.10
2020,05,06,17,04,15.20
2020,05,06,17,05,15.20
2020,05,06,17,06,15.20
2020,05,06,17,07,15.20
2020,05,06,17,08,15.30
2020,05,06,17,09,15.30
2020,05,06,17,10,15.30
2020,05,06,17,11,15.30
2020,05,06,17,12,15.30
2020,05,06,17,13,15.40
2020,05,06,17,14,15.40
2020,05,06,17,15,15.50
2020,05,06,17,16,15.50
2020,05,06,17,17,15.50
2020,05,06,17,18,15.60
2020,05,06,17,19,15.60
2020,05,06,17,20,15.50
2020,05,06,17,21,15.50
2020,05,06,17,22,15.50
2020,05,06,17,23,15.50
2020,05,06,17,24,15.40
2020,05,06,17,25,15.30
2020,05,06,17,26,15.30
2020,05,06,17,27,15.30
2020,05,06,17,28,15.30
2020,05,06,17,29,15.20
2020,05,06,17,30,15.20
2020,05,06,17,31,15.20
2020,05,06,17,32,15.10